Home > Weather > Olongapo > Past weeks

Flag for Philippines Weather for the Past 2 Weeks in Olongapo, Philippines

Now
79 °F

Passing clouds.


Feels Like: 81 °F
Forecast: 74 / 89 °F
Wind: 1 mph from North

Location: Subic Bay Weather Station

Current Time: Feb 11, 2016 at 11:59:52 PM

Latest Report: Feb 11, 2016 at 11:00 PM


Visibility: N/A

Pressure: 29.92 "Hg

Humidity: 70%

Dew point: 68 °F

Location of OlongapoLocation

Historic Weather in Olongapo — Graph

°F

Olongapo Temperature Yesterday

Maximum temperature yesterday: 90 °F (at 2:00 PM)
Minimum temperature yesterday: 75 °F (at 1:00 AM)
Average temperature yesterday: 82 °F

High & Low Weather Summary for the Past Weeks

 TemperatureHumidityPressure
High91 °F (Jan 30, 3:00 PM)94% (Feb 8, 1:00 PM)30.01 "Hg (Feb 8, 1:00 PM)
Low73 °F (Feb 2, 5:00 AM)41% (Feb 2, 4:00 PM)29.74 "Hg (Feb 5, 3:00 PM)
Average81 °F67%29.88 "Hg
* Reported Jan 27 10:00 PM — Feb 11 10:00 PM, Olongapo, Weather by CustomWeather, © 2016

Note: Actual official high and low records may vary slightly from our data, if they occured in-between our weather recording intervals... More about our weather records

Advertising

Olongapo Weather History for the Previous 24 Hours

 ConditionsComfort  
Time TempWeatherWind HumidityBarometerVisibility
10:00 PM
Thu, Feb 11
79 °FPassing clouds.5 mph70%29.92 "HgN/A
9:00 PM81 °FPassing clouds.9 mph66%29.92 "HgN/A
8:00 PM82 °FPassing clouds.13 mph62%29.92 "HgN/A
7:00 PM84 °FPassing clouds.9 mph58%29.89 "HgN/A
6:00 PM84 °FScattered clouds.8 mph62%29.86 "HgN/A
5:00 PM88 °FPassing clouds.15 mph55%29.83 "HgN/A
4:00 PM88 °FPassing clouds.16 mph59%29.83 "HgN/A
3:00 PM88 °FPassing clouds.12 mph59%29.83 "HgN/A
2:00 PM90 °FPassing clouds.9 mph49%29.83 "HgN/A
1:00 PM90 °FPassing clouds.16 mph49%29.86 "HgN/A
12:00 PM88 °FPassing clouds.15 mph49%29.89 "HgN/A
11:00 AM86 °FPassing clouds.12 mph52%29.92 "HgN/A
10:00 AM82 °FPassing clouds.14 mph58%29.92 "HgN/A
9:00 AM81 °FPassing clouds.7 mph62%29.92 "HgN/A
8:00 AM79 °FPassing clouds.12 mph65%29.92 "HgN/A
7:00 AM77 °FSunny.13 mph69%29.89 "Hg10 mi
6:00 AM77 °FPassing clouds.8 mph69%29.89 "HgN/A
5:00 AM77 °FPassing clouds.8 mph69%29.89 "HgN/A
4:00 AM77 °FPassing clouds.5 mph69%29.86 "HgN/A
3:00 AM77 °FPassing clouds.12 mph69%29.86 "HgN/A
2:00 AM77 °FPassing clouds.6 mph74%29.89 "HgN/A
1:00 AM77 °FPassing clouds.7 mph74%29.89 "HgN/A
12:00 AM77 °FPassing clouds.10 mph74%29.92 "HgN/A
11:00 PM
Wed, Feb 10
79 °FPassing clouds.8 mph70%29.92 "HgN/A
Weather by CustomWeather, © 2016

See weather overviewHow to use our weather pages